Regional Weather Roundup
Issued by NWS

Home | Current Version | Previous Version | Graphics & Text | Print | Product List | Glossary On
Versions: 1 2 3 4 5 6 7 8 9 10 11 12 13 14 15 16 17 18 19 20 21 22 23 24 25 26 27 28 29 30 31 32 33 34 35 36 37 38 39 40 41 42 43 44 45 46 47 48 49 50
000
ASUS43 KFSD 280510
RWRSD

WEATHER ROUNDUP FOR SOUTH DAKOTA
NATIONAL WEATHER SERVICE SIOUX FALLS SD
1200 AM CDT THU MAY 28 2015

NOTE: "FAIR" INDICATES FEW OR NO CLOUDS BELOW 12,000 FEET WITH NO
SIGNIFICANT WEATHER AND/OR OBSTRUCTIONS TO VISIBILITY.


SDZ001>005-009-010-012>017-280600-
NORTHWEST AND NORTH CENTRAL SOUTH DAKOTA

CITY           SKY/WX    TMP DP  RH WIND       PRES   REMARKS
BUFFALO          N/A     54  53  97 NE6       29.89F
FAITH            N/A     57  53  86 S14       29.93S
MOBRIDGE       CLOUDY    62  60  93 SE9       29.92F THUNDER
$$

SDZ012>016-024>037-041>051-057-063-072>074-280600-
SOUTHWEST AND SOUTH CENTRAL SOUTH DAKOTA

CITY           SKY/WX    TMP DP  RH WIND       PRES   REMARKS
RAPID CTY ARPT PTCLDY    59  56  89 CALM      29.95R
PIERRE         LGT RAIN  63  60  90 S15       29.94F
CUSTER         PTCLDY    51  46  83 W3        30.05R
ELLSWORTH AFB  PTCLDY    58  57  97 N7        29.94R
PHILIP         PTCLDY    59  57  93 E8        29.94R
PINE RIDGE     CLEAR     62  54  74 S23G32    29.98R
SPEARFISH      FAIR      50  50 100 W3        29.98F
WINNER         FAIR      68  53  58 S9        29.98R
$$

SDZ004>011-016>023-039-040-280600-
NORTHEAST SOUTH DAKOTA

CITY           SKY/WX    TMP DP  RH WIND       PRES   REMARKS
ABERDEEN       CLOUDY    66  55  67 SW6       29.97R
WATERTOWN      CLOUDY    69  51  52 SE3       30.01S
BROOKINGS      MOCLDY    66  54  63 SE9       30.03S
SISSETON         N/A     67  55  65 SW5       29.97F
$$

SDZ017-020-022-023-036>040-048>070-280600-
SOUTHEAST SOUTH DAKOTA

CITY           SKY/WX    TMP DP  RH WIND       PRES   REMARKS
SIOUX FALLS    PTCLDY    67  51  56 S8        30.03R
HURON            N/A    N/A N/A N/A MISG      29.97S
CHAMBERLAIN    MOCLDY    65  54  67 S9        29.98R
MITCHELL       MOCLDY    67  56  67 S8        29.99S
YANKTON        MOCLDY    70  46  43 S7        30.01S
$$

ABBREVIATIONS USED IN REMARKS
   TC - TEMPERATURE IN CELSIUS
  WCI - WIND CHILL INDEX
   HX - HEAT INDEX
  VSB - VISIBILITY




USA.gov is the U.S. government's official web portal to all federal, state and local government web resources and services.